NOZ592W ENGM-EKVG

Flight info

Callsign NOZ592W
Flight time 1h 31m
Altitude 32000
Route ATLAP DCT ERSER/M075F320 DCT ROBUR
Aircraft B738/M-SDE2E3FGHIRWXY/LB1

Departure

Time 2026-05-08 17:17
Airport Oslo-Gardermoen International Airport (ENGM)

Arrival

Time 2026-05-08 18:49
Airport Vágar Airport (EKVG)
Time Latitude Longitude Altitude Speed Heading
2026-05-08 16:42 60.19632 11.09941 687 ft 0 kts 106°
2026-05-08 17:05 60.19632 11.09940 687 ft 0 kts 106°
2026-05-08 17:09 60.19633 11.09934 687 ft 2 kts 106°
2026-05-08 17:10 60.19637 11.09906 686 ft 2 kts 105°
2026-05-08 17:10 60.19642 11.09877 685 ft 2 kts 106°
2026-05-08 17:10 60.19643 11.09870 685 ft 0 kts 106°
2026-05-08 17:12 60.19642 11.09871 685 ft 0 kts 111°
2026-05-08 17:12 60.19632 11.09870 686 ft 2 kts 229°
2026-05-08 17:13 60.19629 11.09791 686 ft 8 kts 279°
2026-05-08 17:13 60.19649 11.09633 684 ft 14 kts 285°
2026-05-08 17:13 60.19681 11.09401 684 ft 18 kts 285°
2026-05-08 17:13 60.19716 11.09160 684 ft 17 kts 286°
2026-05-08 17:14 60.19748 11.08937 685 ft 15 kts 285°
2026-05-08 17:14 60.19775 11.08746 686 ft 13 kts 287°
2026-05-08 17:14 60.19839 11.08707 687 ft 10 kts 15°
2026-05-08 17:14 60.19925 11.08756 687 ft 15 kts 15°
2026-05-08 17:15 60.20053 11.08828 687 ft 22 kts 16°
2026-05-08 17:15 60.20212 11.08922 686 ft 24 kts 16°
2026-05-08 17:15 60.20376 11.09015 684 ft 24 kts 15°
2026-05-08 17:15 60.20530 11.09105 684 ft 20 kts 16°
2026-05-08 17:16 60.20642 11.09084 684 ft 17 kts 291°
2026-05-08 17:16 60.20677 11.08867 684 ft 15 kts 285°
2026-05-08 17:16 60.20689 11.08667 684 ft 14 kts 242°
2026-05-08 17:16 60.20587 11.08574 684 ft 31 kts 195°
2026-05-08 17:17 60.20121 11.08303 687 ft 106 kts 195°
2026-05-08 17:17 60.19187 11.07770 688 ft 168 kts 195°
2026-05-08 17:17 60.18001 11.07083 1258 ft 184 kts 197°
2026-05-08 17:17 60.16917 11.06153 2378 ft 171 kts 211°
2026-05-08 17:18 60.16046 11.04367 2781 ft 193 kts 239°
2026-05-08 17:18 60.15519 11.01785 3285 ft 208 kts 246°
2026-05-08 17:18 60.15011 10.98972 3735 ft 228 kts 253°
2026-05-08 17:18 60.15037 10.95692 4317 ft 249 kts 281°
2026-05-08 17:19 60.15663 10.92382 4953 ft 262 kts 289°
2026-05-08 17:19 60.16374 10.89021 5698 ft 268 kts 288°
2026-05-08 17:19 60.17044 10.85519 6499 ft 270 kts 286°
2026-05-08 17:19 60.17667 10.81979 7333 ft 272 kts 285°
2026-05-08 17:20 60.18276 10.78380 8149 ft 275 kts 285°
2026-05-08 17:20 60.18877 10.74780 8936 ft 278 kts 284°
2026-05-08 17:20 60.19494 10.71094 9737 ft 280 kts 284°
2026-05-08 17:20 60.20114 10.67385 10498 ft 283 kts 285°
2026-05-08 17:21 60.20752 10.63568 10957 ft 297 kts 285°
2026-05-08 17:21 60.21415 10.59594 11392 ft 311 kts 285°
2026-05-08 17:21 60.22121 10.55355 11803 ft 326 kts 285°
2026-05-08 17:21 60.22847 10.50997 12319 ft 337 kts 286°
2026-05-08 17:22 60.23597 10.46501 13019 ft 341 kts 286°
2026-05-08 17:22 60.24356 10.41937 13701 ft 346 kts 286°
2026-05-08 17:22 60.25109 10.37392 14405 ft 348 kts 286°
2026-05-08 17:22 60.25870 10.32783 15060 ft 352 kts 285°
2026-05-08 17:23 60.26642 10.28088 15648 ft 355 kts 285°
2026-05-08 17:23 60.27421 10.23338 16240 ft 358 kts 285°
2026-05-08 17:23 60.28198 10.18577 16816 ft 361 kts 285°
2026-05-08 17:23 60.28982 10.13771 17394 ft 364 kts 285°
2026-05-08 17:24 60.29765 10.08943 17960 ft 366 kts 285°
2026-05-08 17:24 60.30554 10.04055 18530 ft 368 kts 285°
2026-05-08 17:24 60.31346 9.99148 19090 ft 371 kts 285°
2026-05-08 17:24 60.32137 9.94240 19621 ft 373 kts 285°
2026-05-08 17:25 60.32934 9.89283 20147 ft 376 kts 285°
2026-05-08 17:25 60.33743 9.84230 20643 ft 379 kts 285°
2026-05-08 17:25 60.34550 9.79179 21129 ft 382 kts 285°
2026-05-08 17:25 60.35368 9.74053 21624 ft 384 kts 285°
2026-05-08 17:26 60.36185 9.68915 22115 ft 386 kts 284°
2026-05-08 17:26 60.36997 9.63792 22593 ft 389 kts 284°
2026-05-08 17:26 60.37812 9.58611 23073 ft 391 kts 284°
2026-05-08 17:26 60.38644 9.53313 23522 ft 393 kts 284°
2026-05-08 17:27 60.39473 9.48026 23923 ft 397 kts 284°
2026-05-08 17:27 60.40299 9.42754 24288 ft 400 kts 284°
2026-05-08 17:27 60.41139 9.37379 24698 ft 403 kts 284°
2026-05-08 17:27 60.41982 9.31937 25066 ft 407 kts 283°
2026-05-08 17:28 60.42835 9.26423 25443 ft 410 kts 283°
2026-05-08 17:28 60.43684 9.20926 25949 ft 410 kts 283°
2026-05-08 17:28 60.44529 9.15441 26355 ft 412 kts 283°
2026-05-08 17:28 60.45377 9.09915 26709 ft 415 kts 283°
2026-05-08 17:29 60.46236 9.04298 27098 ft 417 kts 283°
2026-05-08 17:29 60.47082 8.98756 27512 ft 418 kts 283°
2026-05-08 17:29 60.47950 8.93049 27873 ft 421 kts 283°
2026-05-08 17:29 60.48801 8.87426 28190 ft 423 kts 283°
2026-05-08 17:30 60.49669 8.81685 28700 ft 422 kts 283°
2026-05-08 17:30 60.50521 8.76043 29246 ft 419 kts 283°
2026-05-08 17:30 60.51375 8.70365 29765 ft 416 kts 283°
2026-05-08 17:30 60.52222 8.64706 30218 ft 415 kts 283°
2026-05-08 17:31 60.53062 8.59084 30656 ft 414 kts 283°
2026-05-08 17:31 60.53888 8.53533 31038 ft 413 kts 282°
2026-05-08 17:31 60.54729 8.47854 31430 ft 412 kts 282°
2026-05-08 17:31 60.55559 8.42226 31754 ft 412 kts 282°
2026-05-08 17:32 60.56377 8.36655 32068 ft 412 kts 282°
2026-05-08 17:32 60.57194 8.31072 32120 ft 414 kts 281°
2026-05-08 17:32 60.58817 8.19949 32113 ft 411 kts 281°
2026-05-08 17:33 60.60431 8.08808 32119 ft 411 kts 282°
2026-05-08 17:33 60.62054 7.97525 32123 ft 411 kts 281°
2026-05-08 17:34 60.63649 7.86371 32110 ft 410 kts 281°
2026-05-08 17:34 60.65232 7.75222 32084 ft 411 kts 281°
2026-05-08 17:35 60.66814 7.64019 32081 ft 410 kts 281°
2026-05-08 17:35 60.68384 7.52812 32073 ft 410 kts 281°
2026-05-08 17:36 60.69938 7.41654 32072 ft 410 kts 281°
2026-05-08 17:36 60.71478 7.30523 32078 ft 409 kts 280°
2026-05-08 17:37 60.73013 7.19357 32077 ft 409 kts 280°
2026-05-08 17:37 60.74536 7.08179 32082 ft 408 kts 280°
2026-05-08 17:38 60.76044 6.97033 32086 ft 408 kts 280°
2026-05-08 17:38 60.77542 6.85871 32089 ft 407 kts 280°
2026-05-08 17:39 60.79031 6.74704 32087 ft 407 kts 280°
2026-05-08 17:39 60.80508 6.63551 32112 ft 406 kts 280°
2026-05-08 17:40 60.81980 6.52363 32126 ft 405 kts 280°
2026-05-08 17:40 60.83443 6.41151 32125 ft 405 kts 280°
2026-05-08 17:41 60.84883 6.30034 32107 ft 404 kts 279°
2026-05-08 17:41 60.86314 6.18918 32093 ft 405 kts 279°
2026-05-08 17:42 60.87734 6.07808 32094 ft 402 kts 279°
2026-05-08 17:42 60.89147 5.96653 32083 ft 404 kts 279°
2026-05-08 17:43 60.90541 5.85555 32103 ft 404 kts 279°
2026-05-08 17:43 60.91931 5.74423 32125 ft 403 kts 279°
2026-05-08 17:44 60.93320 5.63226 32123 ft 402 kts 279°
2026-05-08 17:44 60.94694 5.52066 32118 ft 401 kts 279°
2026-05-08 17:45 60.96049 5.40972 32123 ft 401 kts 279°
2026-05-08 17:45 60.97393 5.29879 32127 ft 400 kts 278°
2026-05-08 17:46 60.98734 5.18727 32131 ft 400 kts 278°
2026-05-08 17:46 61.00051 5.07700 32142 ft 400 kts 278°
2026-05-08 17:47 61.01368 4.96577 32148 ft 399 kts 278°
2026-05-08 17:47 61.02463 4.87259 32150 ft 400 kts 278°
2026-05-08 17:48 61.03972 4.74328 32141 ft 398 kts 278°
2026-05-08 17:48 61.05262 4.63169 32141 ft 398 kts 278°
2026-05-08 17:49 61.06538 4.52055 32136 ft 398 kts 278°
2026-05-08 17:49 61.07796 4.41007 32128 ft 397 kts 278°
2026-05-08 17:50 61.09047 4.29933 32120 ft 397 kts 277°
2026-05-08 17:50 61.10296 4.18799 32117 ft 397 kts 277°
2026-05-08 17:51 61.11537 4.07616 32110 ft 398 kts 277°
2026-05-08 17:51 61.12757 3.96528 32108 ft 397 kts 277°
2026-05-08 17:52 61.13980 3.85329 32094 ft 398 kts 277°
2026-05-08 17:53 61.15784 3.68675 32096 ft 397 kts 276°
2026-05-08 17:53 61.16980 3.57515 32089 ft 396 kts 277°
2026-05-08 17:54 61.18157 3.46413 32077 ft 395 kts 277°
2026-05-08 17:54 61.19335 3.35188 32070 ft 396 kts 276°
2026-05-08 17:55 61.20495 3.24055 32064 ft 395 kts 276°
2026-05-08 17:55 61.21655 3.12852 32057 ft 396 kts 275°
2026-05-08 17:56 61.22798 3.01713 32055 ft 396 kts 275°
2026-05-08 17:56 61.23933 2.90587 32046 ft 397 kts 275°
2026-05-08 17:57 61.25064 2.79372 32034 ft 397 kts 275°
2026-05-08 17:57 61.26172 2.68249 32024 ft 397 kts 275°
2026-05-08 17:58 61.27291 2.57043 32022 ft 396 kts 275°
2026-05-08 17:58 61.28422 2.45851 32023 ft 398 kts 275°
2026-05-08 17:59 61.29552 2.34653 32017 ft 398 kts 275°
2026-05-08 17:59 61.30690 2.23299 32014 ft 397 kts 275°
2026-05-08 18:00 61.31798 2.12129 32004 ft 397 kts 275°
2026-05-08 18:00 61.33455 1.95243 31992 ft 397 kts 275°
2026-05-08 18:01 61.34546 1.84014 31999 ft 398 kts 275°
2026-05-08 18:01 61.35633 1.72732 31989 ft 397 kts 275°
2026-05-08 18:02 61.36528 1.63350 31990 ft 396 kts 275°
2026-05-08 18:02 61.37765 1.50273 31975 ft 395 kts 275°
2026-05-08 18:03 61.38812 1.39057 31974 ft 396 kts 274°
2026-05-08 18:03 61.39864 1.27636 31979 ft 405 kts 274°
2026-05-08 18:04 61.40930 1.15942 31972 ft 414 kts 274°
2026-05-08 18:04 61.42004 1.04056 31967 ft 421 kts 274°
2026-05-08 18:05 61.43078 0.92151 31966 ft 418 kts 274°
2026-05-08 18:05 61.44145 0.80183 31958 ft 420 kts 274°
2026-05-08 18:06 61.45203 0.68163 31947 ft 421 kts 274°
2026-05-08 18:06 61.46245 0.56198 31949 ft 421 kts 274°
2026-05-08 18:07 61.47278 0.44166 31936 ft 423 kts 274°
2026-05-08 18:07 61.48307 0.32050 31930 ft 423 kts 274°
2026-05-08 18:08 61.49319 0.20008 31921 ft 422 kts 274°
2026-05-08 18:08 61.50320 0.07959 31925 ft 423 kts 274°
2026-05-08 18:09 61.51318 -0.04160 31927 ft 423 kts 274°
2026-05-08 18:09 61.52303 -0.16272 31911 ft 423 kts 274°
2026-05-08 18:10 61.53277 -0.28394 31906 ft 425 kts 274°
2026-05-08 18:10 61.54246 -0.40586 31901 ft 424 kts 274°
2026-05-08 18:11 61.55198 -0.52796 31903 ft 428 kts 274°
2026-05-08 18:11 61.56149 -0.65132 31907 ft 429 kts 273°
2026-05-08 18:12 61.57096 -0.77413 31898 ft 429 kts 274°
2026-05-08 18:12 61.58040 -0.89834 31894 ft 431 kts 274°
2026-05-08 18:13 61.58966 -1.02190 31892 ft 430 kts 274°
2026-05-08 18:13 61.59878 -1.14534 31886 ft 430 kts 274°
2026-05-08 18:14 61.60779 -1.26902 31881 ft 430 kts 274°
2026-05-08 18:14 61.61672 -1.39334 31874 ft 430 kts 274°
2026-05-08 18:15 61.62550 -1.51712 31869 ft 431 kts 274°
2026-05-08 18:15 61.63417 -1.64102 31856 ft 431 kts 274°
2026-05-08 18:16 61.64280 -1.76585 31852 ft 432 kts 273°
2026-05-08 18:16 61.65130 -1.89052 31854 ft 431 kts 273°
2026-05-08 18:17 61.65971 -2.01577 31828 ft 432 kts 274°
2026-05-08 18:17 61.66797 -2.14023 31835 ft 431 kts 274°
2026-05-08 18:18 61.67614 -2.26551 31837 ft 432 kts 274°
2026-05-08 18:18 61.68414 -2.39016 31849 ft 430 kts 274°
2026-05-08 18:19 61.69025 -2.51567 31869 ft 430 kts 270°
2026-05-08 18:19 61.69059 -2.64057 31920 ft 430 kts 268°
2026-05-08 18:20 61.69878 -2.76604 31808 ft 432 kts 277°
2026-05-08 18:20 61.71032 -2.88979 31817 ft 434 kts 277°
2026-05-08 18:21 61.72020 -3.01512 31789 ft 434 kts 275°
2026-05-08 18:21 61.72875 -3.14000 31800 ft 433 kts 274°
2026-05-08 18:22 61.73669 -3.26542 31808 ft 433 kts 274°
2026-05-08 18:22 61.74415 -3.39116 31807 ft 434 kts 274°
2026-05-08 18:23 61.75124 -3.51522 31805 ft 415 kts 274°
2026-05-08 18:23 61.75459 -3.57449 31807 ft 399 kts 274°
2026-05-08 18:23 61.75779 -3.63165 31729 ft 386 kts 274°
2026-05-08 18:24 61.76084 -3.68725 31487 ft 380 kts 272°
2026-05-08 18:24 61.76378 -3.74190 31115 ft 380 kts 272°
2026-05-08 18:24 61.76673 -3.79766 30668 ft 381 kts 272°
2026-05-08 18:24 61.76963 -3.85275 30170 ft 383 kts 272°
2026-05-08 18:25 61.77251 -3.90809 29663 ft 384 kts 272°
2026-05-08 18:25 61.77544 -3.96454 29165 ft 385 kts 272°
2026-05-08 18:25 61.77830 -4.01992 28674 ft 385 kts 272°
2026-05-08 18:25 61.78113 -4.07612 28190 ft 383 kts 272°
2026-05-08 18:26 61.78390 -4.13096 27719 ft 381 kts 272°
2026-05-08 18:26 61.78674 -4.18676 27188 ft 380 kts 272°
2026-05-08 18:26 61.78954 -4.24190 26685 ft 376 kts 272°
2026-05-08 18:26 61.79226 -4.29594 26193 ft 373 kts 272°
2026-05-08 18:27 61.79496 -4.34998 25720 ft 369 kts 272°
2026-05-08 18:27 61.79673 -4.38595 25393 ft 366 kts 272°
2026-05-08 18:27 61.80019 -4.45637 24791 ft 360 kts 272°
2026-05-08 18:27 61.80268 -4.50793 24331 ft 355 kts 273°
2026-05-08 18:28 61.80514 -4.55930 23859 ft 351 kts 273°
2026-05-08 18:28 61.80754 -4.60991 23423 ft 345 kts 273°
2026-05-08 18:28 61.80992 -4.66036 22979 ft 341 kts 272°
2026-05-08 18:28 61.81221 -4.70931 22560 ft 336 kts 272°
2026-05-08 18:29 61.81445 -4.75777 22149 ft 331 kts 273°
2026-05-08 18:29 61.81665 -4.80578 21712 ft 326 kts 273°
2026-05-08 18:29 61.81880 -4.85283 21313 ft 321 kts 273°
2026-05-08 18:29 61.82090 -4.89948 20910 ft 316 kts 273°
2026-05-08 18:30 61.82296 -4.94541 20488 ft 313 kts 274°
2026-05-08 18:30 61.82497 -4.99046 20089 ft 308 kts 274°
2026-05-08 18:30 61.82695 -5.03538 19703 ft 304 kts 274°
2026-05-08 18:30 61.82888 -5.07933 19316 ft 299 kts 274°
2026-05-08 18:31 61.83076 -5.12233 18957 ft 300 kts 274°
2026-05-08 18:31 61.83268 -5.16687 18539 ft 306 kts 274°
2026-05-08 18:31 61.83458 -5.21110 18160 ft 301 kts 274°
2026-05-08 18:31 61.83644 -5.25470 17778 ft 295 kts 274°
2026-05-08 18:32 61.83825 -5.29720 17414 ft 290 kts 274°
2026-05-08 18:32 61.84002 -5.33949 17040 ft 291 kts 274°
2026-05-08 18:32 61.84182 -5.38281 16658 ft 295 kts 274°
2026-05-08 18:32 61.84359 -5.42548 16282 ft 290 kts 274°
2026-05-08 18:33 61.84531 -5.46729 15914 ft 285 kts 274°
2026-05-08 18:33 61.84700 -5.50851 15546 ft 281 kts 274°
2026-05-08 18:33 61.84866 -5.54960 14953 ft 284 kts 275°
2026-05-08 18:33 61.85034 -5.59140 14452 ft 283 kts 275°
2026-05-08 18:34 61.85196 -5.63210 14010 ft 281 kts 275°
2026-05-08 18:34 61.85360 -5.67344 13572 ft 279 kts 274°
2026-05-08 18:34 61.85520 -5.71421 13107 ft 279 kts 274°
2026-05-08 18:34 61.85678 -5.75474 12747 ft 274 kts 274°
2026-05-08 18:35 61.85832 -5.79460 12289 ft 274 kts 274°
2026-05-08 18:35 61.85986 -5.83479 11859 ft 273 kts 274°
2026-05-08 18:35 61.86136 -5.87406 11476 ft 270 kts 274°
2026-05-08 18:35 61.86284 -5.91339 11070 ft 268 kts 275°
2026-05-08 18:36 61.86434 -5.95324 10559 ft 270 kts 275°
2026-05-08 18:36 61.86579 -5.99226 10212 ft 267 kts 275°
2026-05-08 18:36 61.86723 -6.03119 9873 ft 264 kts 275°
2026-05-08 18:36 61.86863 -6.06935 9762 ft 253 kts 275°
2026-05-08 18:37 61.86996 -6.10602 9427 ft 252 kts 275°
2026-05-08 18:37 61.87128 -6.14276 9101 ft 250 kts 275°
2026-05-08 18:37 61.87259 -6.17924 8798 ft 247 kts 276°
2026-05-08 18:37 61.87387 -6.21514 8503 ft 244 kts 276°
2026-05-08 18:38 61.87512 -6.25073 8202 ft 241 kts 276°
2026-05-08 18:38 61.87635 -6.28593 7909 ft 239 kts 276°
2026-05-08 18:38 61.87756 -6.32048 7613 ft 236 kts 276°
2026-05-08 18:38 61.87876 -6.35525 7325 ft 234 kts 277°
2026-05-08 18:39 61.87991 -6.38901 7088 ft 229 kts 277°
2026-05-08 18:39 61.88108 -6.42303 6815 ft 233 kts 277°
2026-05-08 18:39 61.88223 -6.45680 6530 ft 232 kts 277°
2026-05-08 18:39 61.88337 -6.49067 6254 ft 229 kts 278°
2026-05-08 18:40 61.88447 -6.52401 5982 ft 227 kts 278°
2026-05-08 18:40 61.88564 -6.55739 5685 ft 227 kts 279°
2026-05-08 18:40 61.88882 -6.58978 5391 ft 221 kts 294°
2026-05-08 18:40 61.89568 -6.61853 5130 ft 216 kts 302°
2026-05-08 18:41 61.90317 -6.64560 4890 ft 212 kts 302°
2026-05-08 18:41 61.90799 -6.66363 4782 ft 205 kts 300°
2026-05-08 18:41 61.91655 -6.69723 4680 ft 184 kts 300°
2026-05-08 18:41 61.92227 -6.72016 4618 ft 169 kts 300°
2026-05-08 18:42 61.92753 -6.74130 4563 ft 156 kts 300°
2026-05-08 18:42 61.93251 -6.76132 4520 ft 151 kts 300°
2026-05-08 18:42 61.93737 -6.78085 4475 ft 151 kts 300°
2026-05-08 18:42 61.94226 -6.80054 4426 ft 151 kts 300°
2026-05-08 18:43 61.94714 -6.82018 4368 ft 150 kts 300°
2026-05-08 18:43 61.95209 -6.83971 4318 ft 150 kts 302°
2026-05-08 18:43 61.95542 -6.85189 4287 ft 150 kts 303°
2026-05-08 18:43 61.96099 -6.87055 4231 ft 149 kts 306°
2026-05-08 18:44 61.96706 -6.88915 4172 ft 159 kts 307°
2026-05-08 18:44 61.97406 -6.90876 4147 ft 174 kts 309°
2026-05-08 18:44 61.98188 -6.92894 4069 ft 179 kts 310°
2026-05-08 18:44 61.98984 -6.94895 3996 ft 178 kts 310°
2026-05-08 18:45 61.99773 -6.96877 3927 ft 178 kts 311°
2026-05-08 18:45 62.00594 -6.98950 3530 ft 185 kts 311°
2026-05-08 18:45 62.01419 -7.01035 3219 ft 186 kts 311°
2026-05-08 18:45 62.02242 -7.03113 2913 ft 186 kts 311°
2026-05-08 18:46 62.03073 -7.05220 2637 ft 184 kts 311°
2026-05-08 18:46 62.03836 -7.07341 2330 ft 180 kts 303°
2026-05-08 18:46 62.04192 -7.09875 2049 ft 183 kts 282°
2026-05-08 18:46 62.04243 -7.12563 1783 ft 177 kts 283°
2026-05-08 18:47 62.04388 -7.15054 1526 ft 166 kts 287°
2026-05-08 18:47 62.04562 -7.17340 1255 ft 150 kts 287°
2026-05-08 18:47 62.04700 -7.19351 1049 ft 129 kts 286°
2026-05-08 18:47 62.04774 -7.21193 872 ft 116 kts 287°
2026-05-08 18:48 62.05067 -7.22688 787 ft 109 kts 303°
2026-05-08 18:48 62.05429 -7.24075 492 ft 111 kts 303°
2026-05-08 18:48 62.05815 -7.25573 355 ft 112 kts 303°
2026-05-08 18:48 62.06154 -7.26904 295 ft 86 kts 302°
2026-05-08 18:49 62.06343 -7.27664 295 ft 32 kts 297°
2026-05-08 18:49 62.06419 -7.27970 294 ft 17 kts 299°
2026-05-08 18:49 62.06461 -7.28111 294 ft 8 kts 323°
2026-05-08 18:49 62.06498 -7.28121 294 ft 3 kts 11°
2026-05-08 18:50 62.06529 -7.28102 294 ft 6 kts 18°
2026-05-08 18:50 62.06573 -7.28076 294 ft 6 kts 11°
2026-05-08 18:50 62.06623 -7.28071 294 ft 8 kts 354°
2026-05-08 18:50 62.06674 -7.28065 294 ft 4 kts 18°
2026-05-08 18:51 62.06686 -7.28054 294 ft 1 kts 25°
2026-05-08 18:51 62.06697 -7.28044 294 ft 1 kts 25°
2026-05-08 18:51 62.06701 -7.28040 294 ft 0 kts 25°